| time (UTC) | temp F | wind direction | speed knots | gust knots | rain 1hr in | rain 24hr in | rain mn in | humidity % | barometer mb |
| 20260505230555 | 63 | 188 | 9.6 | 14.8 | 0.00 | 0.00 | 0.00 | 31 | 1011.3 |
| 20260505225553 | 63 | 219 | 2.6 | 13.0 | 0.00 | 0.00 | 0.00 | 28 | 1011.2 |
| 20260505225100 | 63 | 222 | 3.5 | 10.4 | 0.00 | 0.00 | 0.00 | 28 | 1011.1 |
| 20260505224605 | 63 | 222 | 4.3 | 9.6 | 0.00 | 0.00 | 0.00 | 27 | 1011.3 |
| 20260505224007 | 63 | 280 | 4.3 | 11.3 | 0.00 | 0.00 | 0.00 | 27 | 1011.2 |
| 20260505223603 | 64 | 225 | 1.7 | 11.3 | 0.00 | 0.00 | 0.00 | 28 | 1011.3 |
| 20260505223015 | 64 | 167 | 4.3 | 8.7 | 0.00 | 0.00 | 0.00 | 29 | 1011.5 |
| 20260505222605 | 64 | 182 | 4.3 | 8.7 | 0.00 | 0.00 | 0.00 | 30 | 1011.7 |
| 20260505222005 | 64 | 272 | 2.6 | 9.6 | 0.00 | 0.00 | 0.00 | 30 | 1011.7 |
| 20260505221605 | 64 | 221 | 3.5 | 9.6 | 0.00 | 0.00 | 0.00 | 31 | 1011.8 |
| 20260505221104 | 64 | 236 | 6.1 | 10.4 | 0.00 | 0.00 | 0.00 | 30 | 1011.7 |
| 20260505220505 | 65 | 198 | 4.3 | 9.6 | 0.00 | 0.00 | 0.00 | 30 | 1011.8 |
| 20260505220056 | 65 | 187 | 1.7 | 7.8 | 0.00 | 0.00 | 0.00 | 30 | 1011.9 |
| 20260505215554 | 65 | 244 | 4.3 | 13.9 | 0.00 | 0.00 | 0.00 | 31 | 1011.9 |
| 20260505215100 | 65 | 250 | 5.2 | 14.8 | 0.00 | 0.00 | 0.00 | 30 | 1012.0 |
| 20260505214508 | 66 | 232 | 7.0 | 13.9 | 0.00 | 0.00 | 0.00 | 30 | 1012.0 |
| 20260505214008 | 66 | 219 | 6.1 | 12.2 | 0.00 | 0.00 | 0.00 | 30 | 1012.1 |
| 20260505213512 | 66 | 185 | 5.2 | 13.9 | 0.00 | 0.00 | 0.00 | 30 | 1012.0 |
| 20260505213003 | 65 | 188 | 8.7 | 13.9 | 0.00 | 0.00 | 0.00 | 29 | 1012.1 |
| 20260505212557 | 66 | 223 | 4.3 | 11.3 | 0.00 | 0.00 | 0.00 | 29 | 1012.2 |
| 20260505212001 | 66 | 180 | 7.8 | 11.3 | 0.00 | 0.00 | 0.00 | 28 | 1012.3 |
| 20260505211556 | 67 | 264 | 2.6 | 9.6 | 0.00 | 0.00 | 0.00 | 28 | 1012.4 |
| 20260505211103 | 67 | 196 | 5.2 | 10.4 | 0.00 | 0.00 | 0.00 | 27 | 1012.3 |
| 20260505210553 | 67 | 209 | 7.0 | 10.4 | 0.00 | 0.00 | 0.00 | 28 | 1012.5 |
| 20260505210049 | 67 | 217 | 3.5 | 15.6 | 0.00 | 0.00 | 0.00 | 25 | 1012.5 |
| 20260505205551 | 67 | 311 | 4.3 | 15.6 | 0.00 | 0.00 | 0.00 | 26 | 1012.6 |
| 20260505205057 | 66 | 281 | 7.8 | 14.8 | 0.00 | 0.00 | 0.00 | 25 | 1012.6 |
| 20260505204612 | 67 | 309 | 3.5 | 12.2 | 0.00 | 0.00 | 0.00 | 25 | 1012.7 |
| 20260505204056 | 68 | 311 | 8.7 | 12.2 | 0.00 | 0.00 | 0.00 | 24 | 1012.7 |
| 20260505203603 | 69 | 220 | 5.2 | 10.4 | 0.00 | 0.00 | 0.00 | 24 | 1012.8 |
| 20260505203005 | 67 | 256 | 5.2 | 9.6 | 0.00 | 0.00 | 0.00 | 26 | 1012.7 |
| 20260505202512 | 66 | 205 | 3.5 | 10.4 | 0.00 | 0.00 | 0.00 | 26 | 1012.9 |
| 20260505202003 | 66 | 277 | 2.6 | 15.6 | 0.00 | 0.00 | 0.00 | 27 | 1013.0 |
| 20260505201512 | 65 | 294 | 2.6 | 13.9 | 0.00 | 0.00 | 0.00 | 27 | 1013.1 |
| 20260505201001 | 64 | 103 | 6.1 | 13.9 | 0.00 | 0.00 | 0.00 | 28 | 1013.0 |
| 20260505200507 | 65 | 208 | 6.1 | 12.2 | 0.00 | 0.00 | 0.00 | 27 | 1013.2 |
| 20260505195502 | 66 | 296 | 3.5 | 9.6 | 0.00 | 0.00 | 0.00 | 26 | 1013.4 |
| 20260505195010 | 66 | 230 | 2.6 | 9.6 | 0.00 | 0.00 | 0.00 | 26 | 1013.5 |
| 20260505194501 | 66 | 123 | 1.7 | 9.6 | 0.00 | 0.00 | 0.00 | 26 | 1013.5 |
| 20260505194013 | 66 | 207 | 1.7 | 11.3 | 0.00 | 0.00 | 0.00 | 24 | 1013.6 |
| 20260505193607 | 67 | 196 | 6.1 | 14.8 | 0.00 | 0.00 | 0.00 | 24 | 1013.7 |
| 20260505193005 | 67 | 188 | 4.3 | 14.8 | 0.00 | 0.00 | 0.00 | 25 | 1013.7 |
| 20260505192600 | 66 | 250 | 1.7 | 14.8 | 0.00 | 0.00 | 0.00 | 24 | 1013.7 |
| 20260505192103 | 68 | 173 | 4.3 | 14.8 | 0.00 | 0.00 | 0.00 | 23 | 1013.7 |
| 20260505191506 | 68 | 212 | 6.1 | 10.4 | 0.00 | 0.00 | 0.00 | 23 | 1013.7 |
| 20260505191103 | 67 | 213 | 2.6 | 10.4 | 0.00 | 0.00 | 0.00 | 23 | 1013.8 |
| 20260505190506 | 66 | 169 | 0.9 | 13.9 | 0.00 | 0.00 | 0.00 | 23 | 1013.8 |
| 20260505190011 | 66 | 166 | 1.7 | 15.6 | 0.00 | 0.00 | 0.00 | 23 | 1013.8 |
| 20260505185518 | 66 | 187 | 9.6 | 21.7 | 0.00 | 0.00 | 0.00 | 24 | 1013.8 |
| 20260505185027 | 64 | 211 | 4.3 | 21.7 | 0.00 | 0.00 | 0.00 | 24 | 1013.8 |
| 20260505184532 | 63 | 284 | 1.7 | 8.7 | 0.00 | 0.00 | 0.00 | 24 | 1013.9 |
| 20260505184041 | 64 | 309 | 1.7 | 8.7 | 0.00 | 0.00 | 0.00 | 24 | 1014.0 |
| 20260505183550 | 64 | 277 | 3.5 | 10.4 | 0.00 | 0.00 | 0.00 | 24 | 1014.1 |
| 20260505183047 | 63 | 298 | 2.6 | 10.4 | 0.00 | 0.00 | 0.00 | 24 | 1014.1 |
| 20260505182543 | 63 | 303 | 5.2 | 8.7 | 0.00 | 0.00 | 0.00 | 25 | 1014.1 |
| 20260505182049 | 63 | 220 | 0.9 | 6.1 | 0.00 | 0.00 | 0.00 | 24 | 1014.1 |
| 20260505181600 | 62 | 144 | 2.6 | 10.4 | 0.00 | 0.00 | 0.00 | 24 | 1014.0 |
| 20260505181103 | 61 | 294 | 1.7 | 11.3 | 0.00 | 0.00 | 0.00 | 25 | 1014.2 |
| 20260505180505 | 61 | 273 | 2.6 | 10.4 | 0.00 | 0.00 | 0.00 | 25 | 1014.2 |
| 20260505180027 | 61 | 282 | 5.2 | 11.3 | 0.00 | 0.00 | 0.00 | 25 | 1014.2 |
| 20260505175534 | 61 | 254 | 7.0 | 11.3 | 0.00 | 0.00 | 0.00 | 25 | 1014.3 |
| 20260505175038 | 61 | 285 | 1.7 | 11.3 | 0.00 | 0.00 | 0.00 | 24 | 1014.2 |
| 20260505174546 | 62 | 304 | 5.2 | 11.3 | 0.00 | 0.00 | 0.00 | 24 | 1014.3 |
| 20260505174038 | 61 | 300 | 4.3 | 11.3 | 0.00 | 0.00 | 0.00 | 25 | 1014.1 |
| 20260505173545 | 61 | 298 | 5.2 | 11.3 | 0.00 | 0.00 | 0.00 | 25 | 1014.1 |
| 20260505173034 | 61 | 338 | 6.1 | 11.3 | 0.00 | 0.00 | 0.00 | 25 | 1014.2 |
| 20260505172540 | 62 | 275 | 5.2 | 12.2 | 0.00 | 0.00 | 0.00 | 25 | 1014.3 |
| 20260505172046 | 62 | 214 | 4.3 | 12.2 | 0.00 | 0.00 | 0.00 | 24 | 1014.2 |
| 20260505171536 | 62 | 209 | 4.3 | 8.7 | 0.00 | 0.00 | 0.00 | 24 | 1014.2 |
| 20260505171042 | 61 | 218 | 2.6 | 8.7 | 0.00 | 0.00 | 0.00 | 25 | 1014.1 |
| 20260505170547 | 61 | 290 | 2.6 | 11.3 | 0.00 | 0.00 | 0.00 | 24 | 1014.2 |
| 20260505170054 | 60 | 294 | 7.0 | 11.3 | 0.00 | 0.00 | 0.00 | 25 | 1014.1 |
| 20260505165545 | 60 | 299 | 6.1 | 10.4 | 0.00 | 0.00 | 0.00 | 25 | 1014.0 |
| 20260505165051 | 61 | 306 | 6.1 | 10.4 | 0.00 | 0.00 | 0.00 | 24 | 1014.0 |
| 20260505164602 | 61 | 271 | 4.3 | 11.3 | 0.00 | 0.00 | 0.00 | 24 | 1014.0 |
| 20260505164105 | 61 | 311 | 5.2 | 9.6 | 0.00 | 0.00 | 0.00 | 24 | 1014.0 |
| 20260505163508 | 60 | 304 | 4.3 | 9.6 | 0.00 | 0.00 | 0.00 | 25 | 1013.9 |
| 20260505163014 | 59 | 285 | 2.6 | 9.6 | 0.00 | 0.00 | 0.00 | 25 | 1013.9 |
| 20260505162504 | 59 | 346 | 4.3 | 13.0 | 0.00 | 0.00 | 0.00 | 25 | 1014.1 |
| 20260505162012 | 59 | 325 | 2.6 | 13.0 | 0.00 | 0.00 | 0.00 | 27 | 1014.1 |
| 20260505161504 | 59 | 337 | 4.3 | 14.8 | 0.00 | 0.00 | 0.00 | 26 | 1014.2 |
| 20260505161009 | 58 | 296 | 8.7 | 14.8 | 0.00 | 0.00 | 0.00 | 26 | 1014.4 |
| 20260505160601 | 58 | 290 | 4.3 | 11.3 | 0.00 | 0.00 | 0.00 | 27 | 1014.3 |
| 20260505153120 | 55 | 296 | 3.5 | 7.8 | 0.00 | 0.00 | 0.00 | 32 | 1014.5 |
| 20260505152558 | 55 | 267 | 3.5 | 7.8 | 0.00 | 0.00 | 0.00 | 32 | 1014.6 |
| 20260505152106 | 55 | 281 | 5.2 | 7.8 | 0.00 | 0.00 | 0.00 | 33 | 1014.7 |
| 20260505151554 | 55 | 311 | 2.6 | 7.0 | 0.00 | 0.00 | 0.00 | 32 | 1014.6 |
| 20260505151101 | 55 | 306 | 3.5 | 7.0 | 0.00 | 0.00 | 0.00 | 33 | 1014.6 |
| 20260505150553 | 56 | 360 | 4.3 | 7.8 | 0.00 | 0.00 | 0.00 | 30 | 1014.6 |
| 20260505140501 | 52 | 277 | 1.7 | 4.3 | 0.00 | 0.00 | 0.00 | 39 | 1014.9 |
| 20260505140108 | 52 | 284 | 1.7 | 6.1 | 0.00 | 0.00 | 0.00 | 39 | 1015.0 |
| 20260505124504 | 51 | 290 | 3.5 | 7.8 | 0.00 | 0.00 | 0.00 | 42 | 1015.1 |
| 20260505124058 | 51 | 311 | 1.7 | 7.8 | 0.00 | 0.00 | 0.00 | 42 | 1015.3 |
| 20260505123502 | 51 | 313 | 3.5 | 7.8 | 0.00 | 0.00 | 0.00 | 42 | 1015.2 |
| 20260505123100 | 51 | 288 | 3.5 | 7.0 | 0.00 | 0.00 | 0.00 | 42 | 1015.2 |
| 20260505122606 | 51 | 304 | 2.6 | 9.6 | 0.00 | 0.00 | 0.00 | 42 | 1015.1 |
| 20260505122054 | 51 | 265 | 5.2 | 9.6 | 0.00 | 0.00 | 0.00 | 42 | 1015.0 |
| 20260505121545 | 51 | 300 | 3.5 | 7.0 | 0.00 | 0.00 | 0.00 | 42 | 1015.0 |
| 20260505121053 | 51 | 294 | 2.6 | 7.8 | 0.00 | 0.00 | 0.00 | 42 | 1015.1 |
| 20260505120542 | 51 | 294 | 3.5 | 7.8 | 0.00 | 0.00 | 0.00 | 43 | 1015.1 |
| 20260505120100 | 51 | 325 | 2.6 | 6.1 | 0.00 | 0.00 | 0.00 | 42 | 1015.2 |
| 20260505115554 | 51 | 296 | 1.7 | 3.5 | 0.00 | 0.00 | 0.00 | 42 | 1015.2 |
| 20260505115103 | 51 | 306 | 1.7 | 5.2 | 0.00 | 0.00 | 0.00 | 41 | 1015.2 |
| 20260505114504 | 52 | 305 | 2.6 | 8.7 | 0.00 | 0.00 | 0.00 | 41 | 1015.2 |
| 20260505114011 | 52 | 273 | 4.3 | 8.7 | 0.00 | 0.00 | 0.00 | 41 | 1015.1 |
| 20260505113503 | 52 | 304 | 5.2 | 9.6 | 0.00 | 0.00 | 0.00 | 41 | 1015.0 |
| 20260505113009 | 52 | 271 | 5.2 | 9.6 | 0.00 | 0.00 | 0.00 | 41 | 1015.0 |
| 20260505112606 | 52 | 294 | 5.2 | 8.7 | 0.00 | 0.00 | 0.00 | 41 | 1015.1 |
| 20260505112055 | 52 | 257 | 3.5 | 9.6 | 0.00 | 0.00 | 0.00 | 40 | 1015.1 |
| 20260505111603 | 52 | 261 | 3.5 | 7.0 | 0.00 | 0.00 | 0.00 | 40 | 1015.1 |
| 20260505111010 | 52 | 297 | 2.6 | 6.1 | 0.00 | 0.00 | 0.00 | 39 | 1015.0 |
| 20260505110513 | 52 | 242 | 0.9 | 7.0 | 0.00 | 0.00 | 0.00 | 39 | 1015.0 |
| 20260505102009 | 53 | 282 | 3.5 | 6.1 | 0.00 | 0.00 | 0.00 | 35 | 1015.0 |
| 20260505101605 | 53 | 282 | 2.6 | 5.2 | 0.00 | 0.00 | 0.00 | 35 | 1015.0 |
| 20260505101008 | 53 | 286 | 1.7 | 7.0 | 0.00 | 0.00 | 0.00 | 35 | 1015.1 |
| 20260505100513 | 53 | 272 | 2.6 | 7.0 | 0.00 | 0.00 | 0.00 | 35 | 1015.0 |
| 20260505100104 | 53 | 293 | 2.6 | 7.0 | 0.00 | 0.00 | 0.00 | 35 | 1014.9 |
| 20260505095502 | 54 | 272 | 2.6 | 8.7 | 0.00 | 0.00 | 0.00 | 35 | 1014.9 |
| 20260505095007 | 54 | 287 | 4.3 | 8.7 | 0.00 | 0.00 | 0.00 | 35 | 1014.7 |
| 20260505094603 | 54 | 302 | 4.3 | 9.6 | 0.00 | 0.00 | 0.00 | 35 | 1014.8 |
| 20260505094003 | 54 | 246 | 5.2 | 10.4 | 0.00 | 0.00 | 0.00 | 34 | 1014.9 |
| 20260505093511 | 54 | 292 | 5.2 | 12.2 | 0.00 | 0.00 | 0.00 | 34 | 1014.8 |
| 20260505093017 | 54 | 289 | 6.1 | 12.2 | 0.00 | 0.00 | 0.00 | 34 | 1014.8 |
| 20260505092522 | 54 | 321 | 6.1 | 12.2 | 0.00 | 0.00 | 0.00 | 34 | 1014.8 |
| 20260505092029 | 54 | 286 | 5.2 | 12.2 | 0.00 | 0.00 | 0.00 | 34 | 1014.7 |
| 20260505091534 | 54 | 273 | 7.0 | 11.3 | 0.00 | 0.00 | 0.00 | 34 | 1014.7 |
| 20260505091041 | 55 | 260 | 5.2 | 15.6 | 0.00 | 0.00 | 0.00 | 33 | 1014.8 |
| 20260505090548 | 55 | 291 | 7.0 | 13.9 | 0.00 | 0.00 | 0.00 | 33 | 1014.7 |
| 20260505090039 | 55 | 292 | 7.8 | 13.0 | 0.00 | 0.00 | 0.00 | 33 | 1014.9 |
| 20260505085547 | 55 | 273 | 5.2 | 10.4 | 0.00 | 0.00 | 0.00 | 33 | 1014.8 |
| 20260505085057 | 55 | 301 | 4.3 | 12.2 | 0.00 | 0.00 | 0.00 | 33 | 1015.0 |
| 20260505084602 | 55 | 200 | 6.1 | 12.2 | 0.00 | 0.00 | 0.00 | 33 | 1015.0 |
| 20260505084054 | 55 | 306 | 5.2 | 11.3 | 0.00 | 0.00 | 0.00 | 33 | 1015.0 |
| 20260505083600 | 55 | 265 | 7.0 | 12.2 | 0.00 | 0.00 | 0.00 | 32 | 1015.0 |
| 20260505083105 | 55 | 298 | 6.1 | 12.2 | 0.00 | 0.00 | 0.00 | 32 | 1015.1 |
| 20260505082508 | 55 | 273 | 6.1 | 13.9 | 0.00 | 0.00 | 0.00 | 31 | 1015.0 |
| 20260505082014 | 55 | 281 | 7.0 | 13.9 | 0.00 | 0.00 | 0.00 | 31 | 1015.1 |
| 20260505081521 | 55 | 279 | 4.3 | 9.6 | 0.00 | 0.00 | 0.00 | 31 | 1015.2 |
| 20260505081029 | 56 | 272 | 5.2 | 10.4 | 0.00 | 0.00 | 0.00 | 30 | 1015.2 |
| 20260505080533 | 56 | 244 | 5.2 | 10.4 | 0.00 | 0.00 | 0.00 | 29 | 1015.2 |
| 20260505080039 | 56 | 270 | 6.1 | 12.2 | 0.00 | 0.00 | 0.00 | 28 | 1015.3 |
| 20260505075544 | 56 | 291 | 7.8 | 12.2 | 0.00 | 0.00 | 0.00 | 28 | 1015.1 |
| 20260505075050 | 56 | 280 | 5.2 | 8.7 | 0.00 | 0.00 | 0.00 | 27 | 1015.2 |
| 20260505074555 | 56 | 255 | 4.3 | 9.6 | 0.00 | 0.00 | 0.00 | 26 | 1015.3 |
| 20260505074046 | 56 | 315 | 4.3 | 13.0 | 0.00 | 0.00 | 0.00 | 26 | 1015.2 |
| 20260505073554 | 56 | 284 | 6.1 | 13.0 | 0.00 | 0.00 | 0.00 | 26 | 1015.2 |
| 20260505073043 | 56 | 260 | 7.0 | 14.8 | 0.00 | 0.00 | 0.00 | 25 | 1015.3 |
| 20260505072551 | 56 | 279 | 5.2 | 13.0 | 0.00 | 0.00 | 0.00 | 25 | 1015.2 |
| 20260505072057 | 56 | 259 | 6.1 | 15.6 | 0.00 | 0.00 | 0.00 | 25 | 1015.4 |
| 20260505071548 | 56 | 260 | 6.1 | 15.6 | 0.00 | 0.00 | 0.00 | 25 | 1015.4 |
| 20260505071056 | 56 | 305 | 4.3 | 11.3 | 0.00 | 0.00 | 0.00 | 24 | 1015.4 |
| 20260505070602 | 56 | 324 | 6.1 | 13.0 | 0.00 | 0.00 | 0.00 | 24 | 1015.3 |
| 20260505070005 | 56 | 258 | 7.0 | 13.0 | 0.00 | 0.00 | 0.00 | 23 | 1015.4 |
| 20260505065601 | 56 | 273 | 7.0 | 9.6 | 0.00 | 0.00 | 0.00 | 23 | 1015.4 |
| 20260505065004 | 56 | 273 | 3.5 | 7.0 | 0.00 | 0.00 | 0.00 | 22 | 1015.4 |
| 20260505064602 | 56 | 288 | 2.6 | 7.8 | 0.00 | 0.00 | 0.00 | 22 | 1015.3 |
| 20260505064105 | 56 | 257 | 2.6 | 7.8 | 0.00 | 0.00 | 0.00 | 22 | 1015.2 |
| 20260505063556 | 56 | 265 | 2.6 | 7.8 | 0.00 | 0.00 | 0.00 | 21 | 1015.2 |
| 20260505063047 | 57 | 279 | 3.5 | 7.8 | 0.00 | 0.00 | 0.00 | 22 | 1015.1 |
| 20260505062555 | 57 | 270 | 3.5 | 7.0 | 0.00 | 0.00 | 0.00 | 22 | 1015.1 |
| 20260505062100 | 57 | 265 | 2.6 | 7.0 | 0.00 | 0.00 | 0.00 | 21 | 1015.1 |
| 20260505061505 | 57 | 276 | 2.6 | 7.8 | 0.00 | 0.00 | 0.00 | 20 | 1015.0 |
| 20260505061059 | 57 | 271 | 3.5 | 7.8 | 0.00 | 0.00 | 0.00 | 20 | 1015.1 |
| 20260505060503 | 57 | 286 | 3.5 | 6.1 | 0.00 | 0.00 | 0.00 | 20 | 1014.9 |
| 20260505060040 | 58 | 281 | 3.5 | 9.6 | 0.00 | 0.00 | 0.00 | 20 | 1014.9 |
| 20260505055547 | 58 | 284 | 3.5 | 9.6 | 0.00 | 0.00 | 0.00 | 20 | 1015.0 |
| 20260505055055 | 58 | 267 | 4.3 | 9.6 | 0.00 | 0.00 | 0.00 | 20 | 1015.0 |
| 20260505054600 | 58 | 281 | 4.3 | 8.7 | 0.00 | 0.00 | 0.00 | 19 | 1014.9 |
| 20260505054053 | 58 | 257 | 2.6 | 9.6 | 0.00 | 0.00 | 0.00 | 19 | 1014.9 |
| 20260505053556 | 58 | 244 | 2.6 | 12.2 | 0.00 | 0.00 | 0.00 | 19 | 1014.9 |
| 20260505053109 | 59 | 176 | 3.5 | 12.2 | 0.00 | 0.00 | 0.00 | 19 | 1014.9 |
| 20260505052538 | 59 | 222 | 4.3 | 10.4 | 0.00 | 0.00 | 0.00 | 19 | 1014.9 |
| 20260505052044 | 59 | 225 | 2.6 | 7.0 | 0.00 | 0.00 | 0.00 | 18 | 1014.9 |
| 20260505051550 | 59 | 224 | 4.3 | 9.6 | 0.00 | 0.00 | 0.00 | 19 | 1015.0 |
| 20260505051100 | 59 | 194 | 4.3 | 9.6 | 0.00 | 0.00 | 0.00 | 19 | 1015.0 |
| 20260505050549 | 59 | 217 | 4.3 | 10.4 | 0.00 | 0.00 | 0.00 | 19 | 1014.9 |
| 20260505050104 | 59 | 258 | 4.3 | 7.8 | 0.00 | 0.00 | 0.00 | 20 | 1014.6 |
| 20260505041552 | 60 | 280 | 1.7 | 5.2 | 0.00 | 0.00 | 0.00 | 20 | 1014.5 |
| 20260505041057 | 60 | 280 | 2.6 | 7.0 | 0.00 | 0.00 | 0.00 | 21 | 1014.4 |
| 20260505040501 | 60 | 288 | 3.5 | 7.0 | 0.00 | 0.00 | 0.00 | 21 | 1014.5 |
| 20260505040056 | 60 | 309 | 2.6 | 7.0 | 0.00 | 0.00 | 0.00 | 22 | 1014.5 |
| 20260505035604 | 61 | 292 | 3.5 | 7.0 | 0.00 | 0.00 | 0.00 | 22 | 1014.4 |
| 20260505035054 | 61 | 295 | 3.5 | 6.1 | 0.00 | 0.00 | 0.00 | 23 | 1014.3 |
| 20260505034618 | 61 | 292 | 1.7 | 3.5 | 0.00 | 0.00 | 0.00 | 23 | 1014.3 |
| 20260505034051 | 61 | 275 | 1.7 | 7.8 | 0.00 | 0.00 | 0.00 | 23 | 1014.3 |
| 20260505033543 | 61 | 284 | 4.3 | 8.7 | 0.00 | 0.00 | 0.00 | 23 | 1014.4 |
| 20260505033053 | 61 | 297 | 3.5 | 11.3 | 0.00 | 0.00 | 0.00 | 24 | 1014.3 |
| 20260505032553 | 61 | 271 | 1.7 | 5.2 | 0.00 | 0.00 | 0.00 | 24 | 1014.2 |
| 20260505032106 | 61 | 271 | 0.9 | 2.6 | 0.00 | 0.00 | 0.00 | 24 | 1014.1 |
| 20260505031555 | 62 | 259 | 0.9 | 2.6 | 0.00 | 0.00 | 0.00 | 24 | 1014.0 |
| 20260505031058 | 62 | 248 | 0.0 | 7.0 | 0.00 | 0.00 | 0.00 | 25 | 1013.8 |
| 20260505030551 | 62 | 268 | 0.9 | 7.0 | 0.00 | 0.00 | 0.00 | 24 | 1013.9 |
| 20260505030055 | 62 | 258 | 0.0 | 2.6 | 0.00 | 0.00 | 0.00 | 25 | 1013.8 |
| 20260505025546 | 62 | 255 | 0.9 | 2.6 | 0.00 | 0.00 | 0.00 | 24 | 1013.8 |
| 20260505025037 | 62 | 287 | 0.9 | 2.6 | 0.00 | 0.00 | 0.00 | 24 | 1013.8 |
| 20260505024544 | 62 | 234 | 0.0 | 2.6 | 0.00 | 0.00 | 0.00 | 24 | 1013.7 |
| 20260505024035 | 62 | 234 | 0.0 | 2.6 | 0.00 | 0.00 | 0.00 | 24 | 1013.8 |
| 20260505023541 | 63 | 199 | 0.9 | 2.6 | 0.00 | 0.00 | 0.00 | 24 | 1013.8 |
| 20260505023049 | 63 | 261 | 0.0 | 1.7 | 0.00 | 0.00 | 0.00 | 23 | 1013.6 |
| 20260505022555 | 63 | 261 | 0.0 | 1.7 | 0.00 | 0.00 | 0.00 | 23 | 1013.6 |
| 20260505022046 | 64 | 257 | 0.0 | 1.7 | 0.00 | 0.00 | 0.00 | 23 | 1013.5 |
| 20260505021554 | 64 | 257 | 0.0 | 2.6 | 0.00 | 0.00 | 0.00 | 23 | 1013.6 |
| 20260505021059 | 64 | 257 | 0.0 | 2.6 | 0.00 | 0.00 | 0.00 | 23 | 1013.6 |
| 20260505020502 | 64 | 263 | 0.0 | 1.7 | 0.00 | 0.00 | 0.00 | 23 | 1013.5 |
| 20260505020105 | 64 | 266 | 0.0 | 2.6 | 0.00 | 0.00 | 0.00 | 23 | 1013.4 |
| 20260505015554 | 65 | 261 | 0.9 | 2.6 | 0.00 | 0.00 | 0.00 | 22 | 1013.5 |
| 20260505015100 | 65 | 284 | 0.0 | 1.7 | 0.00 | 0.00 | 0.00 | 23 | 1013.4 |
| 20260505014504 | 65 | 279 | 0.0 | 2.6 | 0.00 | 0.00 | 0.00 | 23 | 1013.4 |
| 20260505014058 | 65 | 309 | 0.0 | 2.6 | 0.00 | 0.00 | 0.00 | 23 | 1013.4 |
| 20260505013502 | 65 | 273 | 0.0 | 2.6 | 0.00 | 0.00 | 0.00 | 23 | 1013.3 |
| 20260505013101 | 65 | 277 | 0.0 | 6.1 | 0.00 | 0.00 | 0.00 | 22 | 1013.5 |
| 20260505012603 | 65 | 311 | 2.6 | 6.1 | 0.00 | 0.00 | 0.00 | 22 | 1013.5 |
| 20260505012053 | 66 | 297 | 0.9 | 5.2 | 0.00 | 0.00 | 0.00 | 22 | 1013.4 |
| 20260505011603 | 66 | 267 | 2.6 | 5.2 | 0.00 | 0.00 | 0.00 | 22 | 1013.4 |
| 20260505011051 | 66 | 269 | 1.7 | 4.3 | 0.00 | 0.00 | 0.00 | 22 | 1013.5 |
| 20260505010558 | 66 | 273 | 2.6 | 3.5 | 0.00 | 0.00 | 0.00 | 22 | 1013.5 |
| 20260505010105 | 66 | 296 | 0.9 | 3.5 | 0.00 | 0.00 | 0.00 | 22 | 1013.5 |
| 20260505005557 | 66 | 284 | 0.9 | 3.5 | 0.00 | 0.00 | 0.00 | 22 | 1013.5 |
| 20260505005104 | 66 | 227 | 1.7 | 6.1 | 0.00 | 0.00 | 0.00 | 22 | 1013.7 |
| 20260505004604 | 67 | 296 | 2.6 | 6.1 | 0.00 | 0.00 | 0.00 | 22 | 1013.7 |
| 20260505004059 | 67 | 289 | 1.7 | 6.1 | 0.00 | 0.00 | 0.00 | 22 | 1013.6 |
| 20260505003605 | 67 | 219 | 1.7 | 6.1 | 0.00 | 0.00 | 0.00 | 22 | 1013.9 |
| 20260505003008 | 67 | 297 | 2.6 | 7.0 | 0.00 | 0.00 | 0.00 | 22 | 1013.7 |
| 20260505002604 | 67 | 293 | 3.5 | 7.0 | 0.00 | 0.00 | 0.00 | 22 | 1013.9 |
| 20260505002007 | 67 | 317 | 3.5 | 5.2 | 0.00 | 0.00 | 0.00 | 22 | 1013.9 |
| 20260505001629 | 67 | 315 | 3.5 | 5.2 | 0.00 | 0.00 | 0.00 | 22 | 1014.0 |
| 20260505001003 | 67 | 311 | 1.7 | 8.7 | 0.00 | 0.00 | 0.00 | 21 | 1014.1 |
| 20260505000557 | 67 | 281 | 2.6 | 8.7 | 0.00 | 0.00 | 0.00 | 21 | 1014.1 |
| 20260505000104 | 67 | 300 | 5.2 | 8.7 | 0.00 | 0.00 | 0.00 | 21 | 1014.1 |
| 20260504235556 | 67 | 284 | 0.9 | 8.7 | 0.00 | 0.00 | 0.00 | 22 | 1014.0 |
| 20260504235049 | 67 | 292 | 4.3 | 8.7 | 0.00 | 0.00 | 0.00 | 22 | 1014.0 |
| 20260504234556 | 68 | 306 | 3.5 | 7.0 | 0.00 | 0.00 | 0.00 | 22 | 1014.1 |
| 20260504234044 | 68 | 309 | 1.7 | 7.0 | 0.00 | 0.00 | 0.00 | 22 | 1014.1 |
| 20260504233534 | 68 | 310 | 2.6 | 7.0 | 0.00 | 0.00 | 0.00 | 22 | 1014.1 |
| 20260504233055 | 68 | 293 | 1.7 | 8.7 | 0.00 | 0.00 | 0.00 | 21 | 1014.2 |
| 20260504232546 | 68 | 355 | 6.1 | 8.7 | 0.00 | 0.00 | 0.00 | 22 | 1014.2 |
| 20260504232054 | 68 | 325 | 2.6 | 9.6 | 0.00 | 0.00 | 0.00 | 21 | 1014.1 |
| 20260504231600 | 68 | 302 | 4.3 | 9.6 | 0.00 | 0.00 | 0.00 | 22 | 1014.2 |
| 20260504231002 | 69 | 324 | 2.6 | 7.0 | 0.00 | 0.00 | 0.00 | 21 | 1014.3 |